Location: Passau
(48.5830°N, 13.4830°E)
Time: 11:22:12
(UTC+02:00)

N. Korean satellite - Pass Details

Date: 29 September 2021
Orbit: 450 x 495 km, 97.3° (Epoch: 15 October)

Event Time Altitude Azimuth Distance (km) Brightness Sun altitude
Rises 05:12:22 0° 34° (NNE) 2,541 11.1 -18.8°
Reaches altitude 10° 05:15:51 10° 71° (ENE) 1,667 10.6 -18.3°
Maximum altitude 05:16:58 11° 89° (E) 1,597 10.3 -18.1°
Drops below altitude 10° 05:18:04 10° 107° (ESE) 1,670 10.1 -17.9°
Sets 05:21:33 0° 144° (SE) 2,554 10.5 -17.3°
